Time,TemperatureF,DewpointF,PressureIn,WindDirection,WindDirectionDegrees,WindSpeedMPH,WindSpeedGustMPH,Humidity,HourlyPrecipIn,Conditions,Clouds,dailyrainin,SoftwareType,DateUTC
2013-04-16 00:00:00,32.1,27.5,29.97,WNW,288,3.0,7.0,83,0.00,,,0.00,Wunderground v.1.15,2013-04-16 05:00:00,
2013-04-16 00:10:00,31.9,27.3,29.97,NW,304,5.0,7.0,83,0.00,,,0.00,Wunderground v.1.15,2013-04-16 05:10:00,
2013-04-16 00:15:00,31.9,27.3,29.97,WNW,284,5.0,7.0,83,0.00,,,0.00,Wunderground v.1.15,2013-04-16 05:15:00,
2013-04-16 00:20:00,31.9,27.3,29.97,WNW,298,4.0,6.0,83,0.00,,,0.00,Wunderground v.1.15,2013-04-16 05:20:00,
2013-04-16 00:30:00,31.9,27.0,29.98,NW,315,5.0,5.0,82,0.00,,,0.00,Wunderground v.1.15,2013-04-16 05:30:00,
2013-04-16 00:35:00,31.8,26.9,29.98,NNW,328,5.0,7.0,82,0.00,,,0.00,Wunderground v.1.15,2013-04-16 05:35:00,
2013-04-16 00:40:00,31.8,26.9,29.98,NW,313,4.0,6.0,82,0.00,,,0.00,Wunderground v.1.15,2013-04-16 05:40:00,
2013-04-16 00:45:00,31.8,26.6,29.98,NW,311,4.0,6.0,81,0.00,,,0.00,Wunderground v.1.15,2013-04-16 05:45:00,
2013-04-16 00:55:00,31.8,26.6,29.98,WNW,301,4.0,7.0,81,0.00,,,0.00,Wunderground v.1.15,2013-04-16 05:55:00,
2013-04-16 01:00:00,31.8,26.3,29.99,NNW,339,4.0,4.0,80,0.00,,,0.00,Wunderground v.1.15,2013-04-16 06:00:00,
2013-04-16 01:10:00,31.8,26.3,29.99,WNW,299,6.0,6.0,80,0.00,,,0.00,Wunderground v.1.15,2013-04-16 06:10:00,
2013-04-16 01:15:00,31.8,26.3,29.99,NNW,336,6.0,6.0,80,0.00,,,0.00,Wunderground v.1.15,2013-04-16 06:15:00,
2013-04-16 01:20:00,31.8,26.3,29.99,NW,320,5.0,6.0,80,0.00,,,0.00,Wunderground v.1.15,2013-04-16 06:20:00,
2013-04-16 01:25:00,31.6,26.1,29.99,NNW,329,5.0,6.0,80,0.00,,,0.00,Wunderground v.1.15,2013-04-16 06:25:00,
2013-04-16 01:30:00,31.6,26.1,30.00,WNW,294,4.0,6.0,80,0.00,,,0.00,Wunderground v.1.15,2013-04-16 06:30:00,
2013-04-16 01:40:00,31.6,25.8,30.00,WNW,302,6.0,6.0,79,0.00,,,0.00,Wunderground v.1.15,2013-04-16 06:40:00,
2013-04-16 01:45:00,31.5,26.0,30.00,NW,305,6.0,6.0,80,0.00,,,0.00,Wunderground v.1.15,2013-04-16 06:45:00,
2013-04-16 01:55:00,31.3,25.8,30.00,WNW,284,7.0,9.0,80,0.00,,,0.00,Wunderground v.1.15,2013-04-16 06:55:00,
2013-04-16 02:00:00,31.3,25.8,30.00,NW,311,8.0,13.0,80,0.00,,,0.00,Wunderground v.1.15,2013-04-16 07:00:00,
2013-04-16 02:05:00,31.3,25.5,30.00,NNW,336,8.0,13.0,79,0.00,,,0.00,Wunderground v.1.15,2013-04-16 07:05:00,
2013-04-16 02:10:00,31.2,25.7,30.00,NNW,333,5.0,5.0,80,0.00,,,0.00,Wunderground v.1.15,2013-04-16 07:10:00,
2013-04-16 02:15:00,31.2,25.7,29.98,NNW,342,3.0,8.0,80,0.00,,,0.00,Wunderground v.1.15,2013-04-16 07:15:00,
2013-04-16 02:20:00,31.0,25.6,29.98,NW,304,5.0,5.0,80,0.00,,,0.00,Wunderground v.1.15,2013-04-16 07:20:00,
2013-04-16 02:30:00,31.0,25.6,30.00,NNW,329,5.0,9.0,80,0.00,,,0.00,Wunderground v.1.15,2013-04-16 07:30:00,
2013-04-16 02:40:00,30.9,25.5,30.00,NW,325,6.0,7.0,80,0.00,,,0.00,Wunderground v.1.15,2013-04-16 07:40:00,
2013-04-16 02:45:00,30.9,25.5,30.01,WNW,291,7.0,8.0,80,0.00,,,0.00,Wunderground v.1.15,2013-04-16 07:45:00,
2013-04-16 02:55:00,30.7,25.0,30.01,NW,316,6.0,13.0,79,0.00,,,0.00,Wunderground v.1.15,2013-04-16 07:55:00,
2013-04-16 03:00:00,30.7,25.0,30.01,WNW,285,7.0,7.0,79,0.00,,,0.00,Wunderground v.1.15,2013-04-16 08:00:00,
2013-04-16 03:05:00,30.7,25.0,30.01,North,349,8.0,8.0,79,0.00,,,0.00,Wunderground v.1.15,2013-04-16 08:05:00,
2013-04-16 03:15:00,30.6,24.9,30.01,NNW,347,5.0,6.0,79,0.00,,,0.00,Wunderground v.1.15,2013-04-16 08:15:00,
2013-04-16 03:20:00,30.6,24.9,30.01,WNW,302,5.0,5.0,79,0.00,,,0.00,Wunderground v.1.15,2013-04-16 08:20:00,
2013-04-16 03:25:00,30.6,25.2,30.01,NW,323,5.0,6.0,80,0.00,,,0.00,Wunderground v.1.15,2013-04-16 08:25:00,
2013-04-16 03:30:00,30.6,25.2,30.02,WNW,302,4.0,4.0,80,0.00,,,0.00,Wunderground v.1.15,2013-04-16 08:30:00,
2013-04-16 03:40:00,30.4,25.0,30.02,North,359,2.0,4.0,80,0.00,,,0.00,Wunderground v.1.15,2013-04-16 08:40:00,
2013-04-16 03:45:00,30.4,25.0,30.02,NW,326,4.0,10.0,80,0.00,,,0.00,Wunderground v.1.15,2013-04-16 08:45:00,
2013-04-16 03:50:00,30.4,24.7,30.02,NNW,340,7.0,8.0,79,0.00,,,0.00,Wunderground v.1.15,2013-04-16 08:50:00,
2013-04-16 03:55:00,30.3,24.6,30.02,NNW,343,7.0,10.0,79,0.00,,,0.00,Wunderground v.1.15,2013-04-16 08:55:00,
2013-04-16 04:00:00,30.3,24.6,30.02,NNW,329,8.0,8.0,79,0.00,,,0.00,Wunderground v.1.15,2013-04-16 09:00:00,
2013-04-16 04:05:00,30.3,24.6,30.02,NNW,333,9.0,9.0,79,0.00,,,0.00,Wunderground v.1.15,2013-04-16 09:05:00,
2013-04-16 04:10:00,30.3,24.6,30.02,NW,323,8.0,8.0,79,0.00,,,0.00,Wunderground v.1.15,2013-04-16 09:10:00,
2013-04-16 04:15:00,30.1,24.4,30.05,North,354,8.0,10.0,79,0.00,,,0.00,Wunderground v.1.15,2013-04-16 09:15:00,
2013-04-16 04:20:00,30.1,24.7,30.05,NW,316,9.0,9.0,80,0.00,,,0.00,Wunderground v.1.15,2013-04-16 09:20:00,
2013-04-16 04:25:00,30.1,24.7,30.05,NW,305,7.0,9.0,80,0.00,,,0.00,Wunderground v.1.15,2013-04-16 09:25:00,
2013-04-16 04:35:00,30.0,24.3,30.06,NNW,340,7.0,13.0,79,0.00,,,0.00,Wunderground v.1.15,2013-04-16 09:35:00,
2013-04-16 04:40:00,30.0,24.3,30.06,NNW,332,9.0,9.0,79,0.00,,,0.00,Wunderground v.1.15,2013-04-16 09:40:00,
2013-04-16 04:50:00,30.0,24.3,30.05,NNW,336,10.0,10.0,79,0.00,,,0.00,Wunderground v.1.15,2013-04-16 09:50:00,
2013-04-16 04:55:00,30.0,24.3,30.05,NW,323,10.0,10.0,79,0.00,,,0.00,Wunderground v.1.15,2013-04-16 09:55:00,
2013-04-16 05:05:00,30.0,24.3,30.04,NNW,328,7.0,9.0,79,0.00,,,0.00,Wunderground v.1.15,2013-04-16 10:05:00,
2013-04-16 05:15:00,30.0,24.3,30.06,NNW,330,10.0,13.0,79,0.00,,,0.00,Wunderground v.1.15,2013-04-16 10:15:00,
2013-04-16 05:20:00,30.0,24.3,30.06,NNW,339,10.0,10.0,79,0.00,,,0.00,Wunderground v.1.15,2013-04-16 10:20:00,
2013-04-16 05:25:00,30.0,24.3,30.06,NW,318,9.0,10.0,79,0.00,,,0.00,Wunderground v.1.15,2013-04-16 10:25:00,
2013-04-16 05:30:00,29.8,24.1,30.07,NNW,332,5.0,5.0,79,0.00,,,0.00,Wunderground v.1.15,2013-04-16 10:30:00,
2013-04-16 05:35:00,29.8,24.1,30.07,NNW,333,5.0,8.0,79,0.00,,,0.00,Wunderground v.1.15,2013-04-16 10:35:00,
2013-04-16 05:40:00,29.8,24.1,30.07,NNW,339,6.0,7.0,79,0.00,,,0.00,Wunderground v.1.15,2013-04-16 10:40:00,
2013-04-16 05:45:00,29.7,24.3,30.07,NNW,346,5.0,7.0,80,0.00,,,0.00,Wunderground v.1.15,2013-04-16 10:45:00,
2013-04-16 05:55:00,29.4,24.6,30.07,NNW,328,5.0,6.0,82,0.00,,,0.00,Wunderground v.1.15,2013-04-16 10:55:00,
2013-04-16 06:00:00,29.3,24.5,30.08,NNW,332,4.0,4.0,82,0.00,,,0.00,Wunderground v.1.15,2013-04-16 11:00:00,
2013-04-16 06:05:00,29.1,24.3,30.08,WNW,295,2.0,4.0,82,0.00,,,0.00,Wunderground v.1.15,2013-04-16 11:05:00,
2013-04-16 06:10:00,29.0,24.5,30.08,NW,311,1.0,1.0,83,0.00,,,0.00,Wunderground v.1.15,2013-04-16 11:10:00,
2013-04-16 06:15:00,28.8,24.3,30.09,NW,311,1.0,1.0,83,0.00,,,0.00,Wunderground v.1.15,2013-04-16 11:15:00,
2013-04-16 06:20:00,28.7,24.2,30.09,NW,312,0.0,0.0,83,0.00,,,0.00,Wunderground v.1.15,2013-04-16 11:20:00,
2013-04-16 06:25:00,28.4,24.2,30.09,NW,326,0.0,0.0,84,0.00,,,0.00,Wunderground v.1.15,2013-04-16 11:25:00,
2013-04-16 06:35:00,28.2,24.0,30.09,NW,308,1.0,1.0,84,0.00,,,0.00,Wunderground v.1.15,2013-04-16 11:35:00,
2013-04-16 06:40:00,28.2,24.0,30.09,NW,323,1.0,7.0,84,0.00,,,0.00,Wunderground v.1.15,2013-04-16 11:40:00,
2013-04-16 06:45:00,28.2,24.0,30.10,NNW,330,2.0,7.0,84,0.00,,,0.00,Wunderground v.1.15,2013-04-16 11:45:00,
2013-04-16 06:55:00,28.1,23.9,30.10,NW,311,0.0,1.0,84,0.00,,,0.00,Wunderground v.1.15,2013-04-16 11:55:00,
2013-04-16 07:00:00,27.9,23.7,30.12,NW,308,0.0,0.0,84,0.00,,,0.00,Wunderground v.1.15,2013-04-16 12:00:00,
2013-04-16 07:05:00,27.9,24.0,30.12,West,280,0.0,0.0,85,0.00,,,0.00,Wunderground v.1.15,2013-04-16 12:05:00,
2013-04-16 07:10:00,27.8,23.9,30.12,WNW,284,0.0,1.0,85,0.00,,,0.00,Wunderground v.1.15,2013-04-16 12:10:00,
2013-04-16 07:20:00,27.8,24.2,30.13,WNW,284,1.0,1.0,86,0.00,,,0.00,Wunderground v.1.15,2013-04-16 12:20:00,
2013-04-16 07:25:00,27.8,24.2,30.13,NW,306,0.0,1.0,86,0.00,,,0.00,Wunderground v.1.15,2013-04-16 12:25:00,
2013-04-16 07:30:00,27.9,24.3,30.13,NW,306,0.0,1.0,86,0.00,,,0.00,Wunderground v.1.15,2013-04-16 12:30:00,
2013-04-16 07:35:00,27.9,24.5,30.13,NW,318,0.0,1.0,87,0.00,,,0.00,Wunderground v.1.15,2013-04-16 12:35:00,
2013-04-16 07:40:00,28.1,24.7,30.13,NW,320,1.0,1.0,87,0.00,,,0.00,Wunderground v.1.15,2013-04-16 12:40:00,
2013-04-16 07:45:00,28.1,24.7,30.14,NNW,330,1.0,1.0,87,0.00,,,0.00,Wunderground v.1.15,2013-04-16 12:45:00,
2013-04-16 07:50:00,28.2,24.8,30.14,NNW,329,1.0,4.0,87,0.00,,,0.00,Wunderground v.1.15,2013-04-16 12:50:00,
2013-04-16 08:00:00,28.4,25.0,30.15,NNW,336,2.0,2.0,87,0.00,,,0.00,Wunderground v.1.15,2013-04-16 13:00:00,
2013-04-16 08:05:00,28.5,25.1,30.15,NW,316,2.0,4.0,87,0.00,,,0.00,Wunderground v.1.15,2013-04-16 13:05:00,
2013-04-16 08:10:00,28.7,25.3,30.15,NW,318,2.0,2.0,87,0.00,,,0.00,Wunderground v.1.15,2013-04-16 13:10:00,
2013-04-16 08:15:00,28.8,25.1,30.16,NNW,332,1.0,2.0,86,0.00,,,0.00,Wunderground v.1.15,2013-04-16 13:15:00,
2013-04-16 08:25:00,29.3,25.4,30.16,NW,320,1.0,4.0,85,0.00,,,0.00,Wunderground v.1.15,2013-04-16 13:25:00,
2013-04-16 08:30:00,29.4,25.4,30.17,NW,305,1.0,1.0,85,0.00,,,0.00,Wunderground v.1.15,2013-04-16 13:30:00,
2013-04-16 08:35:00,29.7,25.5,30.17,NW,320,1.0,1.0,84,0.00,,,0.00,Wunderground v.1.15,2013-04-16 13:35:00,
2013-04-16 08:40:00,30.0,25.8,30.17,NNW,337,2.0,4.0,84,0.00,,,0.00,Wunderground v.1.15,2013-04-16 13:40:00,
2013-04-16 08:45:00,30.3,25.5,30.16,WNW,291,3.0,4.0,82,0.00,,,0.00,Wunderground v.1.15,2013-04-16 13:45:00,
2013-04-16 08:50:00,30.4,25.3,30.16,NNW,342,6.0,6.0,81,0.00,,,0.00,Wunderground v.1.15,2013-04-16 13:50:00,
2013-04-16 08:55:00,30.3,24.9,30.16,North,0,8.0,10.0,80,0.00,,,0.00,Wunderground v.1.15,2013-04-16 13:55:00,
2013-04-16 09:00:00,30.4,25.0,30.17,NNW,333,8.0,8.0,80,0.00,,,0.00,Wunderground v.1.15,2013-04-16 14:00:00,
2013-04-16 09:10:00,31.2,25.4,30.17,NNW,333,7.0,9.0,79,0.00,,,0.00,Wunderground v.1.15,2013-04-16 14:10:00,
2013-04-16 09:15:00,31.3,25.2,30.17,NNW,329,6.0,9.0,78,0.00,,,0.00,Wunderground v.1.15,2013-04-16 14:15:00,
2013-04-16 09:25:00,31.9,25.2,30.17,NNW,342,5.0,11.0,76,0.00,,,0.00,Wunderground v.1.15,2013-04-16 14:25:00,
2013-04-16 09:30:00,31.9,24.9,30.19,NNW,342,8.0,8.0,75,0.00,,,0.00,Wunderground v.1.15,2013-04-16 14:30:00,
2013-04-16 09:35:00,32.1,24.7,30.19,North,0,9.0,10.0,74,0.00,,,0.00,Wunderground v.1.15,2013-04-16 14:35:00,
2013-04-16 09:40:00,32.4,25.0,30.19,NNW,339,8.0,8.0,74,0.00,,,0.00,Wunderground v.1.15,2013-04-16 14:40:00,
2013-04-16 09:45:00,32.7,25.0,30.19,North,349,7.0,8.0,73,0.00,,,0.00,Wunderground v.1.15,2013-04-16 14:45:00,
2013-04-16 09:50:00,32.8,24.8,30.19,North,7,6.0,11.0,72,0.00,,,0.00,Wunderground v.1.15,2013-04-16 14:50:00,
2013-04-16 10:00:00,32.4,24.4,30.19,NNW,340,10.0,11.0,72,0.00,,,0.00,Wunderground v.1.15,2013-04-16 15:00:00,
2013-04-16 10:10:00,32.4,24.4,30.19,NNW,342,9.0,9.0,72,0.00,,,0.00,Wunderground v.1.15,2013-04-16 15:10:00,
2013-04-16 10:15:00,32.2,24.2,30.20,NNW,333,9.0,10.0,72,0.00,,,0.00,Wunderground v.1.15,2013-04-16 15:15:00,
2013-04-16 10:25:00,32.8,24.8,30.20,North,356,8.0,9.0,72,0.00,,,0.00,Wunderground v.1.15,2013-04-16 15:25:00,
2013-04-16 10:30:00,32.9,24.9,30.19,North,3,9.0,9.0,72,0.00,,,0.00,Wunderground v.1.15,2013-04-16 15:30:00,
2013-04-16 10:35:00,32.9,24.2,30.19,North,0,9.0,9.0,70,0.00,,,0.00,Wunderground v.1.15,2013-04-16 15:35:00,
2013-04-16 10:45:00,33.1,24.7,30.20,North,356,9.0,10.0,71,0.00,,,0.00,Wunderground v.1.15,2013-04-16 15:45:00,
2013-04-16 10:50:00,33.1,24.4,30.20,North,1,9.0,9.0,70,0.00,,,0.00,Wunderground v.1.15,2013-04-16 15:50:00,
2013-04-16 10:55:00,32.9,24.5,30.20,North,356,10.0,10.0,71,0.00,,,0.00,Wunderground v.1.15,2013-04-16 15:55:00,
2013-04-16 11:00:00,33.1,24.4,30.20,North,357,9.0,9.0,70,0.00,,,0.00,Wunderground v.1.15,2013-04-16 16:00:00,
2013-04-16 11:05:00,33.4,24.3,30.20,North,352,9.0,9.0,69,0.00,,,0.00,Wunderground v.1.15,2013-04-16 16:05:00,
2013-04-16 11:10:00,33.2,24.5,30.20,NNW,342,9.0,10.0,70,0.00,,,0.00,Wunderground v.1.15,2013-04-16 16:10:00,
2013-04-16 11:20:00,33.4,25.0,30.22,North,356,9.0,9.0,71,0.00,,,0.00,Wunderground v.1.15,2013-04-16 16:20:00,
2013-04-16 11:25:00,33.5,25.1,30.22,NNW,339,8.0,9.0,71,0.00,,,0.00,Wunderground v.1.15,2013-04-16 16:25:00,
2013-04-16 11:30:00,33.5,25.1,30.22,North,353,9.0,9.0,71,0.00,,,0.00,Wunderground v.1.15,2013-04-16 16:30:00,
2013-04-16 11:40:00,33.4,25.0,30.22,NNW,344,9.0,9.0,71,0.00,,,0.00,Wunderground v.1.15,2013-04-16 16:40:00,
2013-04-16 11:50:00,33.4,24.7,30.23,North,350,9.0,9.0,70,0.00,,,0.00,Wunderground v.1.15,2013-04-16 16:50:00,
2013-04-16 11:55:00,33.7,25.0,30.23,North,0,9.0,9.0,70,0.00,,,0.00,Wunderground v.1.15,2013-04-16 16:55:00,
2013-04-16 12:05:00,33.5,25.1,30.23,North,0,9.0,11.0,71,0.00,,,0.00,Wunderground v.1.15,2013-04-16 17:05:00,
2013-04-16 12:10:00,33.5,24.8,30.23,North,354,8.0,8.0,70,0.00,,,0.00,Wunderground v.1.15,2013-04-16 17:10:00,
2013-04-16 12:15:00,33.8,25.0,30.23,NNW,337,8.0,10.0,70,0.00,,,0.00,Wunderground v.1.15,2013-04-16 17:15:00,
2013-04-16 12:20:00,34.3,25.2,30.23,North,0,7.0,11.0,69,0.00,,,0.00,Wunderground v.1.15,2013-04-16 17:20:00,
2013-04-16 12:25:00,34.1,24.3,30.23,NNW,335,8.0,11.0,67,0.00,,,0.00,Wunderground v.1.15,2013-04-16 17:25:00,
2013-04-16 12:30:00,34.0,24.5,30.23,North,3,9.0,9.0,68,0.00,,,0.00,Wunderground v.1.15,2013-04-16 17:30:00,
2013-04-16 12:40:00,34.1,25.0,30.23,NNW,347,8.0,8.0,69,0.00,,,0.00,Wunderground v.1.15,2013-04-16 17:40:00,
2013-04-16 12:45:00,34.1,24.6,30.24,North,0,8.0,8.0,68,0.00,,,0.00,Wunderground v.1.15,2013-04-16 17:45:00,
2013-04-16 12:55:00,34.4,25.3,30.24,NNW,343,8.0,9.0,69,0.00,,,0.00,Wunderground v.1.15,2013-04-16 17:55:00,
2013-04-16 13:00:00,34.7,25.6,30.23,North,354,8.0,9.0,69,0.00,,,0.00,Wunderground v.1.15,2013-04-16 18:00:00,
2013-04-16 13:05:00,34.9,25.4,30.23,NNW,333,8.0,13.0,68,0.00,,,0.00,Wunderground v.1.15,2013-04-16 18:05:00,
2013-04-16 13:10:00,34.9,25.4,30.23,North,0,8.0,8.0,68,0.00,,,0.00,Wunderground v.1.15,2013-04-16 18:10:00,
2013-04-16 13:15:00,35.2,26.0,30.24,North,349,7.0,8.0,69,0.00,,,0.00,Wunderground v.1.15,2013-04-16 18:15:00,
2013-04-16 13:20:00,35.3,25.4,30.24,NW,315,7.0,8.0,67,0.00,,,0.00,Wunderground v.1.15,2013-04-16 18:20:00,
2013-04-16 13:30:00,35.3,25.8,30.24,North,350,7.0,7.0,68,0.00,,,0.00,Wunderground v.1.15,2013-04-16 18:30:00,
2013-04-16 13:35:00,35.2,26.0,30.24,North,0,7.0,8.0,69,0.00,,,0.00,Wunderground v.1.15,2013-04-16 18:35:00,
2013-04-16 13:40:00,35.3,26.5,30.24,NNW,337,6.0,6.0,70,0.00,,,0.00,Wunderground v.1.15,2013-04-16 18:40:00,
2013-04-16 13:45:00,35.6,26.1,30.25,NNW,335,6.0,7.0,68,0.00,,,0.00,Wunderground v.1.15,2013-04-16 18:45:00,
2013-04-16 13:50:00,35.6,26.4,30.25,North,352,7.0,7.0,69,0.00,,,0.00,Wunderground v.1.15,2013-04-16 18:50:00,
2013-04-16 13:55:00,35.6,26.1,30.25,North,356,7.0,8.0,68,0.00,,,0.00,Wunderground v.1.15,2013-04-16 18:55:00,
2013-04-16 14:05:00,35.6,25.7,30.25,North,0,8.0,9.0,67,0.00,,,0.00,Wunderground v.1.15,2013-04-16 19:05:00,
2013-04-16 14:10:00,35.8,25.9,30.25,North,0,8.0,8.0,67,0.00,,,0.00,Wunderground v.1.15,2013-04-16 19:10:00,
2013-04-16 14:15:00,35.6,25.4,30.24,NNW,344,8.0,10.0,66,0.00,,,0.00,Wunderground v.1.15,2013-04-16 19:15:00,
2013-04-16 14:20:00,35.6,25.0,30.24,North,0,8.0,9.0,65,0.00,,,0.00,Wunderground v.1.15,2013-04-16 19:20:00,
2013-04-16 14:25:00,35.8,25.5,30.24,North,0,8.0,9.0,66,0.00,,,0.00,Wunderground v.1.15,2013-04-16 19:25:00,
2013-04-16 14:30:00,35.8,25.5,30.25,North,4,8.0,8.0,66,0.00,,,0.00,Wunderground v.1.15,2013-04-16 19:30:00,
2013-04-16 14:35:00,36.0,25.4,30.25,North,354,8.0,8.0,65,0.00,,,0.00,Wunderground v.1.15,2013-04-16 19:35:00,
2013-04-16 14:45:00,36.2,25.6,30.25,North,356,7.0,8.0,65,0.00,,,0.00,Wunderground v.1.15,2013-04-16 19:45:00,
2013-04-16 14:50:00,35.9,24.9,30.25,North,0,8.0,8.0,64,0.00,,,0.00,Wunderground v.1.15,2013-04-16 19:50:00,
2013-04-16 14:55:00,36.0,25.4,30.25,North,3,8.0,8.0,65,0.00,,,0.00,Wunderground v.1.15,2013-04-16 19:55:00,
2013-04-16 15:00:00,36.2,25.6,30.26,North,7,7.0,10.0,65,0.00,,,0.00,Wunderground v.1.15,2013-04-16 20:00:00,
2013-04-16 15:10:00,36.3,25.3,30.26,North,0,8.0,8.0,64,0.00,,,0.00,Wunderground v.1.15,2013-04-16 20:10:00,
2013-04-16 15:15:00,36.3,26.0,30.26,North,0,8.0,8.0,66,0.00,,,0.00,Wunderground v.1.15,2013-04-16 20:15:00,
2013-04-16 15:20:00,36.3,25.3,30.26,North,354,8.0,8.0,64,0.00,,,0.00,Wunderground v.1.15,2013-04-16 20:20:00,
2013-04-16 15:30:00,36.3,25.7,30.26,North,0,8.0,8.0,65,0.00,,,0.00,Wunderground v.1.15,2013-04-16 20:30:00,
2013-04-16 15:35:00,36.8,26.5,30.26,North,350,7.0,8.0,66,0.00,,,0.00,Wunderground v.1.15,2013-04-16 20:35:00,
2013-04-16 15:40:00,36.6,25.9,30.26,NNW,346,8.0,10.0,65,0.00,,,0.00,Wunderground v.1.15,2013-04-16 20:40:00,
2013-04-16 15:45:00,36.3,26.4,30.26,NNW,340,8.0,10.0,67,0.00,,,0.00,Wunderground v.1.15,2013-04-16 20:45:00,
2013-04-16 15:50:00,36.8,26.5,30.26,North,0,8.0,9.0,66,0.00,,,0.00,Wunderground v.1.15,2013-04-16 20:50:00,
2013-04-16 15:55:00,36.5,26.2,30.26,North,11,8.0,9.0,66,0.00,,,0.00,Wunderground v.1.15,2013-04-16 20:55:00,
2013-04-16 16:05:00,36.3,26.4,30.25,North,0,8.0,9.0,67,0.00,,,0.00,Wunderground v.1.15,2013-04-16 21:05:00,
2013-04-16 16:10:00,36.5,26.6,30.25,North,0,8.0,9.0,67,0.00,,,0.00,Wunderground v.1.15,2013-04-16 21:10:00,
2013-04-16 16:15:00,36.6,25.9,30.25,North,6,8.0,10.0,65,0.00,,,0.00,Wunderground v.1.15,2013-04-16 21:15:00,
2013-04-16 16:25:00,36.8,26.5,30.25,North,356,7.0,9.0,66,0.00,,,0.00,Wunderground v.1.15,2013-04-16 21:25:00,
2013-04-16 16:30:00,36.9,26.6,30.25,North,1,7.0,13.0,66,0.00,,,0.00,Wunderground v.1.15,2013-04-16 21:30:00,
2013-04-16 16:35:00,36.6,26.7,30.25,North,357,8.0,13.0,67,0.00,,,0.00,Wunderground v.1.15,2013-04-16 21:35:00,
2013-04-16 16:40:00,36.6,26.7,30.25,North,0,9.0,9.0,67,0.00,,,0.00,Wunderground v.1.15,2013-04-16 21:40:00,
2013-04-16 16:50:00,36.6,25.9,30.25,North,0,8.0,8.0,65,0.00,,,0.00,Wunderground v.1.15,2013-04-16 21:50:00,
2013-04-16 16:55:00,36.8,26.5,30.25,NNW,332,7.0,8.0,66,0.00,,,0.00,Wunderground v.1.15,2013-04-16 21:55:00,
2013-04-16 17:00:00,37.0,26.3,30.25,NNW,347,7.0,10.0,65,0.00,,,0.00,Wunderground v.1.15,2013-04-16 22:00:00,
2013-04-16 17:10:00,37.0,26.7,30.25,North,0,8.0,8.0,66,0.00,,,0.00,Wunderground v.1.15,2013-04-16 22:10:00,
2013-04-16 17:15:00,36.9,26.2,30.25,North,0,8.0,8.0,65,0.00,,,0.00,Wunderground v.1.15,2013-04-16 22:15:00,
2013-04-16 17:20:00,37.2,26.9,30.25,North,359,7.0,7.0,66,0.00,,,0.00,Wunderground v.1.15,2013-04-16 22:20:00,
2013-04-16 17:30:00,37.3,26.6,30.26,NE,38,6.0,6.0,65,0.00,,,0.00,Wunderground v.1.15,2013-04-16 22:30:00,
2013-04-16 17:35:00,37.0,26.3,30.26,NNE,18,7.0,7.0,65,0.00,,,0.00,Wunderground v.1.15,2013-04-16 22:35:00,
2013-04-16 17:40:00,36.9,26.6,30.26,North,6,6.0,7.0,66,0.00,,,0.00,Wunderground v.1.15,2013-04-16 22:40:00,
2013-04-16 17:45:00,37.2,26.5,30.26,NNE,18,7.0,7.0,65,0.00,,,0.00,Wunderground v.1.15,2013-04-16 22:45:00,
2013-04-16 17:50:00,36.9,26.2,30.26,North,1,7.0,11.0,65,0.00,,,0.00,Wunderground v.1.15,2013-04-16 22:50:00,
2013-04-16 17:55:00,36.5,26.2,30.26,North,7,7.0,11.0,66,0.00,,,0.00,Wunderground v.1.15,2013-04-16 22:55:00,
2013-04-16 18:00:00,36.2,26.3,30.27,NNE,23,7.0,7.0,67,0.00,,,0.00,Wunderground v.1.15,2013-04-16 23:00:00,
2013-04-16 18:10:00,36.0,25.7,30.27,NNE,17,5.0,6.0,66,0.00,,,0.00,Wunderground v.1.15,2013-04-16 23:10:00,
2013-04-16 18:15:00,36.0,26.1,30.27,North,7,5.0,9.0,67,0.00,,,0.00,Wunderground v.1.15,2013-04-16 23:15:00,
2013-04-16 18:25:00,36.0,26.1,30.27,NNE,18,4.0,6.0,67,0.00,,,0.00,Wunderground v.1.15,2013-04-16 23:25:00,
2013-04-16 18:30:00,36.0,26.5,30.27,North,0,3.0,3.0,68,0.00,,,0.00,Wunderground v.1.15,2013-04-16 23:30:00,
2013-04-16 18:35:00,35.9,26.4,30.27,North,10,2.0,6.0,68,0.00,,,0.00,Wunderground v.1.15,2013-04-16 23:35:00,
2013-04-16 18:40:00,35.9,26.0,30.27,NNE,17,3.0,3.0,67,0.00,,,0.00,Wunderground v.1.15,2013-04-16 23:40:00,
2013-04-16 18:50:00,36.0,26.1,30.27,NNE,28,3.0,3.0,67,0.00,,,0.00,Wunderground v.1.15,2013-04-16 23:50:00,
2013-04-16 18:55:00,36.0,26.1,30.27,NE,37,3.0,6.0,67,0.00,,,0.00,Wunderground v.1.15,2013-04-16 23:55:00,
2013-04-16 19:00:00,35.9,26.0,30.27,North,0,4.0,7.0,67,0.00,,,0.00,Wunderground v.1.15,2013-04-17 00:00:00,
2013-04-16 19:10:00,35.8,25.9,30.27,North,11,4.0,6.0,67,0.00,,,0.00,Wunderground v.1.15,2013-04-17 00:10:00,
2013-04-16 19:15:00,35.6,25.7,30.27,NNE,14,4.0,6.0,67,0.00,,,0.00,Wunderground v.1.15,2013-04-17 00:15:00,
2013-04-16 19:20:00,35.6,26.1,30.27,North,0,3.0,3.0,68,0.00,,,0.00,Wunderground v.1.15,2013-04-17 00:20:00,
2013-04-16 19:25:00,35.6,26.1,30.27,North,0,2.0,4.0,68,0.00,,,0.00,Wunderground v.1.15,2013-04-17 00:25:00,
2013-04-16 19:35:00,35.3,25.8,30.28,North,0,2.0,2.0,68,0.00,,,0.00,Wunderground v.1.15,2013-04-17 00:35:00,
2013-04-16 19:40:00,35.2,25.7,30.28,North,0,1.0,2.0,68,0.00,,,0.00,Wunderground v.1.15,2013-04-17 00:40:00,
2013-04-16 19:45:00,35.0,25.5,30.29,North,356,1.0,2.0,68,0.00,,,0.00,Wunderground v.1.15,2013-04-17 00:45:00,
2013-04-16 19:50:00,34.9,25.4,30.29,North,0,1.0,1.0,68,0.00,,,0.00,Wunderground v.1.15,2013-04-17 00:50:00,
2013-04-16 19:55:00,34.7,25.6,30.29,North,0,1.0,1.0,69,0.00,,,0.00,Wunderground v.1.15,2013-04-17 00:55:00,
2013-04-16 20:00:00,34.6,25.5,30.29,North,356,1.0,1.0,69,0.00,,,0.00,Wunderground v.1.15,2013-04-17 01:00:00,
2013-04-16 20:10:00,34.4,25.6,30.29,North,356,0.0,1.0,70,0.00,,,0.00,Wunderground v.1.15,2013-04-17 01:10:00,
2013-04-16 20:15:00,34.4,25.6,30.29,North,359,0.0,1.0,70,0.00,,,0.00,Wunderground v.1.15,2013-04-17 01:15:00,
2013-04-16 20:20:00,34.3,25.9,30.29,North,359,0.0,2.0,71,0.00,,,0.00,Wunderground v.1.15,2013-04-17 01:20:00,
2013-04-16 20:25:00,34.3,25.9,30.29,North,0,1.0,2.0,71,0.00,,,0.00,Wunderground v.1.15,2013-04-17 01:25:00,
2013-04-16 20:30:00,34.1,25.7,30.30,North,0,1.0,1.0,71,0.00,,,0.00,Wunderground v.1.15,2013-04-17 01:30:00,
2013-04-16 20:35:00,34.0,25.9,30.30,North,354,0.0,1.0,72,0.00,,,0.00,Wunderground v.1.15,2013-04-17 01:35:00,
2013-04-16 20:40:00,34.0,25.9,30.30,North,0,0.0,0.0,72,0.00,,,0.00,Wunderground v.1.15,2013-04-17 01:40:00,
2013-04-16 20:45:00,34.0,25.9,30.30,North,357,0.0,1.0,72,0.00,,,0.00,Wunderground v.1.15,2013-04-17 01:45:00,
2013-04-16 20:55:00,33.5,26.1,30.30,North,0,2.0,2.0,74,0.00,,,0.00,Wunderground v.1.15,2013-04-17 01:55:00,
2013-04-16 21:00:00,33.4,26.3,30.31,North,0,2.0,4.0,75,0.00,,,0.00,Wunderground v.1.15,2013-04-17 02:00:00,
2013-04-16 21:10:00,32.9,26.2,30.31,North,359,2.0,2.0,76,0.00,,,0.00,Wunderground v.1.15,2013-04-17 02:10:00,
2013-04-16 21:15:00,32.8,26.4,30.30,North,0,1.0,2.0,77,0.00,,,0.00,Wunderground v.1.15,2013-04-17 02:15:00,
2013-04-16 21:20:00,32.7,26.3,30.30,North,0,1.0,2.0,77,0.00,,,0.00,Wunderground v.1.15,2013-04-17 02:20:00,
2013-04-16 21:25:00,32.5,26.1,30.30,North,0,1.0,2.0,77,0.00,,,0.00,Wunderground v.1.15,2013-04-17 02:25:00,
2013-04-16 21:35:00,32.2,26.1,30.31,North,0,1.0,1.0,78,0.00,,,0.00,Wunderground v.1.15,2013-04-17 02:35:00,
2013-04-16 21:45:00,32.1,26.0,30.32,North,349,1.0,1.0,78,0.00,,,0.00,Wunderground v.1.15,2013-04-17 02:45:00,
2013-04-16 21:50:00,31.9,25.8,30.32,North,349,1.0,1.0,78,0.00,,,0.00,Wunderground v.1.15,2013-04-17 02:50:00,
2013-04-16 21:55:00,31.8,25.7,30.32,North,349,0.0,1.0,78,0.00,,,0.00,Wunderground v.1.15,2013-04-17 02:55:00,
2013-04-16 22:00:00,31.6,25.8,30.33,North,349,1.0,1.0,79,0.00,,,0.00,Wunderground v.1.15,2013-04-17 03:00:00,
2013-04-16 22:10:00,31.5,25.7,30.33,North,349,0.0,0.0,79,0.00,,,0.00,Wunderground v.1.15,2013-04-17 03:10:00,
2013-04-16 22:15:00,31.3,25.5,30.32,North,349,0.0,1.0,79,0.00,,,0.00,Wunderground v.1.15,2013-04-17 03:15:00,
2013-04-16 22:25:00,31.2,25.4,30.32,North,349,0.0,0.0,79,0.00,,,0.00,Wunderground v.1.15,2013-04-17 03:25:00,
2013-04-16 22:30:00,31.2,25.4,30.32,North,349,0.0,0.0,79,0.00,,,0.00,Wunderground v.1.15,2013-04-17 03:30:00,
2013-04-16 22:35:00,31.0,25.2,30.32,North,349,0.0,1.0,79,0.00,,,0.00,Wunderground v.1.15,2013-04-17 03:35:00,
2013-04-16 22:40:00,30.9,25.2,30.32,North,349,0.0,0.0,79,0.00,,,0.00,Wunderground v.1.15,2013-04-17 03:40:00,
2013-04-16 22:45:00,30.7,25.3,30.32,North,349,0.0,0.0,80,0.00,,,0.00,Wunderground v.1.15,2013-04-17 03:45:00,
2013-04-16 22:55:00,30.6,25.2,30.32,North,349,0.0,0.0,80,0.00,,,0.00,Wunderground v.1.15,2013-04-17 03:55:00,
2013-04-16 23:00:00,30.4,25.0,30.32,North,349,0.0,0.0,80,0.00,,,0.00,Wunderground v.1.15,2013-04-17 04:00:00,
2013-04-16 23:05:00,30.3,25.2,30.32,North,349,0.0,0.0,81,0.00,,,0.00,Wunderground v.1.15,2013-04-17 04:05:00,
2013-04-16 23:10:00,30.3,25.2,30.32,North,349,0.0,0.0,81,0.00,,,0.00,Wunderground v.1.15,2013-04-17 04:10:00,
2013-04-16 23:15:00,30.1,25.0,30.32,North,349,0.0,0.0,81,0.00,,,0.00,Wunderground v.1.15,2013-04-17 04:15:00,
2013-04-16 23:20:00,30.1,25.0,30.32,North,349,0.0,0.0,81,0.00,,,0.00,Wunderground v.1.15,2013-04-17 04:20:00,
2013-04-16 23:25:00,30.0,24.9,30.32,North,349,0.0,0.0,81,0.00,,,0.00,Wunderground v.1.15,2013-04-17 04:25:00,
2013-04-16 23:30:00,29.8,25.0,30.31,North,353,0.0,0.0,82,0.00,,,0.00,Wunderground v.1.15,2013-04-17 04:30:00,
2013-04-16 23:35:00,29.8,25.0,30.31,NNE,18,1.0,1.0,82,0.00,,,0.00,Wunderground v.1.15,2013-04-17 04:35:00,
2013-04-16 23:40:00,29.8,25.0,30.31,NNE,17,1.0,4.0,82,0.00,,,0.00,Wunderground v.1.15,2013-04-17 04:40:00,
2013-04-16 23:45:00,29.7,24.9,30.30,NNE,17,1.0,4.0,82,0.00,,,0.00,Wunderground v.1.15,2013-04-17 04:45:00,
2013-04-16 23:50:00,29.7,25.2,30.30,NNE,20,1.0,1.0,83,0.00,,,0.00,Wunderground v.1.15,2013-04-17 04:50:00,
2013-04-16 23:55:00,29.7,25.2,30.30,NNE,20,1.0,2.0,83,0.00,,,0.00,Wunderground v.1.15,2013-04-17 04:55:00,